Ubon Ratchathani, Thailand

12:22 AM +07 on June 28, 2017 (GMT +0700)
Ubon Ratchathani

Weather History for VTUU - November, 2012

Change the Weather History Date:

Tuesday, November 6, 2012

  Actual Average Record
Temperature  
Mean Temperature 84 °F -  
Max Temperature 95 °F 87 °F - ()
Min Temperature 73 °F 67 °F - ()
Cooling Degree Days 19    
Growing Degree Days 34 (Base 50)    
Moisture  
Dew Point 71 °F    
Average Humidity 68    
Maximum Humidity 88    
Minimum Humidity 44    
Precipitation  
Precipitation 0.00 in 0.03 in - ()
Sea Level Pressure  
Sea Level Pressure 29.84 in    
Wind  
Wind Speed 2 mph ()    
Max Wind Speed 8 mph    
Max Gust Speed -    
Visibility 5.7 miles    
Events Rain , Thunderstorm    
T = Trace of Precipitation, MM = Missing Value Source: Averaged Metar Reports

Daily Weather History Graph

Daily Weather History Graph

Search for Another Location

Airport or City:

Trip Planner

Search our weather history database for the weather conditions in past years. The results will help you decide how hot, cold, wet, or windy it might be!

Date:

Astronomy

Nov. 06, 2012 Rise Set
Actual Time 5:58 AM +07 5:29 PM +07
Civil Twilight 5:36 AM +07 5:51 PM +07
Nautical Twilight 5:10 AM +07 6:17 PM +07
Astronomical Twilight 4:45 AM +07 6:43 PM +07
Moon 11:28 PM +07 (11/6) 11:35 AM +07 (11/6)
Length of Visible Light 12h 15m
Length of Day
11h 31m
Waning Gibbous, 58% of the Moon is Illuminated
Nov 6
Waning Gibbous
Nov 7
Last Quarter
Nov 14
New
Nov 20
First Quarter
Nov 28
Full

Hourly Weather History & Observations

Time (+07) Temp. Heat Index Dew Point Humidity Pressure Visibility Wind Dir Wind Speed Gust Speed Precip Events Conditions
1:00 AM 76 °F - 72 °F 84% 29.84 in 5 mi East 2.3 mph - -   Mist
4:00 AM 75.2 °F - 69.8 °F 83% 29.83 in 5.0 mi North 3.5 mph - N/A   Unknown
6:00 AM 73.4 °F - 69.8 °F 88% 29.86 in 5.0 mi North 2.3 mph - N/A   Unknown
6:30 AM 73.4 °F - 69.8 °F 88% 29.86 in 5.0 mi North 1.2 mph - N/A   Unknown
7:00 AM 74 °F - 70 °F 84% 29.89 in 6 mi NNE 2.3 mph - -   Clear
7:00 AM 75.2 °F - 69.8 °F 83% 29.86 in - NNE 2.3 mph - N/A   Clear
8:00 AM 78.8 °F - 71.6 °F 78% 29.89 in - NE 2.3 mph - N/A   Clear
9:00 AM 82.4 °F 87.2 °F 71.6 °F 70% 29.92 in - ESE 2.3 mph - N/A   Clear
10:00 AM 86.0 °F 91.8 °F 71.6 °F 62% 29.92 in 6.2 mi ENE 3.5 mph - N/A   Partly Cloudy
11:00 AM 86.0 °F 91.8 °F 71.6 °F 62% 29.89 in 6.2 mi East 2.3 mph - N/A   Partly Cloudy
12:00 PM 89.6 °F 98.2 °F 73.4 °F 59% 29.86 in 6.2 mi WNW 2.3 mph - N/A   Scattered Clouds
1:00 PM 90 °F - 71 °F 44% 29.81 in 6 mi ESE 2.3 mph - -   Partly Cloudy
1:00 PM 89.6 °F 96.2 °F 71.6 °F 55% 29.83 in 6.2 mi ESE 2.3 mph - N/A   Scattered Clouds
2:00 PM 89.6 °F 96.2 °F 71.6 °F 55% 29.77 in 6.2 mi SE 2.3 mph - N/A   Scattered Clouds
3:00 PM 91.4 °F 96.8 °F 69.8 °F 49% 29.77 in 6.2 mi North 2.3 mph - N/A   Scattered Clouds
4:00 PM 93.2 °F 98.8 °F 69.8 °F 46% 29.74 in 6.2 mi West 3.5 mph - N/A   Scattered Clouds
5:00 PM 91.4 °F 96.8 °F 69.8 °F 49% 29.77 in 6.2 mi NE 2.3 mph - N/A   Scattered Clouds
5:30 PM 89.6 °F 96.2 °F 71.6 °F 55% 29.77 in 5.6 mi North 2.3 mph - N/A   Scattered Clouds
6:00 PM 89.6 °F 96.2 °F 71.6 °F 55% 29.77 in 5.6 mi ESE 2.3 mph - N/A   Scattered Clouds
7:00 PM 80 °F - 73 °F 74% 29.82 in 4 mi ESE 8.1 mph - - Rain , Thunderstorm Thunderstorms and Rain
8:00 PM 80.6 °F 85.4 °F 73.4 °F 79% 29.83 in 5.6 mi ESE 2.3 mph - N/A   Mostly Cloudy
9:00 PM 80.6 °F 85.4 °F 73.4 °F 79% 29.86 in 5.6 mi SSE 2.3 mph - N/A   Mostly Cloudy
10:00 PM 80.6 °F 85.4 °F 73.4 °F 79% 29.86 in 5.6 mi NNW 2.3 mph - N/A   Mostly Cloudy